Home > Time Zones > World Clock > Weather > Macau > Macau > Past weeks

Flag for Macau Weather past 2 weeks in Macau, Macau

Now
82 °F

Passing clouds.


Feels Like: 92 °F
Forecast: 80 / 88 °F
Wind: 10 mph from Southeast

Location: Taipa

Current Time: Sep 18, 2014 at 3:39:13 AM

Latest Report: Sep 18, 2014 at 3:00 AM


Visibility: N/A

Pressure: 29.89 "Hg

Humidity: 89%

Dew point: 79 °F

Location of MacauLocation

Historic Weather in Macau — Graph

°F

Macau temperature yesterday

Maximum temperature yesterday: 84 °F (at 9:00 AM)
Minimum temperature yesterday: 77 °F (at 3:46 AM)
Average temperature yesterday: 83 °F

Past Weeks' High & Low Weather Summary

 TemperatureHumidityPressure
High93 °F (Sep 4, 2:30 PM)100% (Sep 17, 4:00 AM)29.92 "Hg (Sep 17, 4:00 AM)
Low77 °F (Sep 17, 3:46 AM)59% (Sep 4, 2:30 PM)29.45 "Hg (Sep 16, 3:00 AM)
Average85 °F80%29.71 "Hg
* Reported Sep 3 2:00 AM — Sep 18 2:00 AM, Macau, Weather by CustomWeather, © 2014

Note: Actual official high and low records may vary slightly from our data, if they occured in-between our weather recording intervals... More about our weather records

Advertising

Macau weather history for previous 24 hours

 ConditionsComfort  
Time TempWeatherWind HumidityBarometerVisibility
2:00 AM
Sep 18
82 °FPassing clouds.12 mph89%29.89 "HgN/A
1:30 AM82 °FPassing clouds.10 mph89%29.92 "HgN/A
1:00 AM82 °FPassing clouds.10 mph89%29.92 "HgN/A
12:30 AM82 °FPassing clouds.8 mph89%29.92 "HgN/A
12:00 AM82 °FPassing clouds.8 mph89%29.92 "HgN/A
11:30 PM
Sep 17
82 °FPassing clouds.10 mph89%29.92 "HgN/A
11:00 PM82 °FPassing clouds.12 mph89%29.92 "HgN/A
10:30 PM82 °FPassing clouds.15 mph89%29.92 "HgN/A
10:00 PM82 °FPassing clouds.14 mph89%29.92 "HgN/A
9:30 PM82 °FPassing clouds.15 mph89%29.92 "HgN/A
9:00 PM82 °FPassing clouds.16 mph89%29.92 "HgN/A
8:30 PM82 °FPassing clouds.16 mph89%29.92 "HgN/A
8:00 PM82 °FPassing clouds.16 mph89%29.89 "HgN/A
7:30 PM82 °FPassing clouds.16 mph89%29.89 "HgN/A
7:00 PM82 °FPassing clouds.15 mph89%29.86 "HgN/A
6:30 PM82 °FPassing clouds.16 mph89%29.86 "HgN/A
6:00 PM84 °FPassing clouds.16 mph84%29.86 "HgN/A
5:30 PM84 °FPassing clouds.16 mph84%29.83 "HgN/A
5:00 PM84 °FScattered clouds.17 mph84%29.83 "HgN/A
4:30 PM84 °FScattered clouds.20 mph84%29.83 "HgN/A
4:00 PM84 °FScattered clouds.21 mph84%29.83 "HgN/A
3:30 PM84 °FSprinkles. Scattered clouds.16 mph84%29.83 "HgN/A
3:00 PM84 °FScattered clouds.20 mph84%29.83 "HgN/A
2:30 PM84 °FScattered clouds.21 mph84%29.83 "HgN/A
2:00 PM84 °FScattered clouds.21 mph84%29.83 "HgN/A
1:30 PM84 °FScattered clouds.20 mph84%29.83 "HgN/A
1:00 PM84 °FScattered clouds.20 mph84%29.83 "HgN/A
12:30 PM84 °FPassing clouds.20 mph84%29.86 "HgN/A
12:00 PM84 °FScattered clouds.21 mph84%29.86 "HgN/A
11:30 AM84 °FSprinkles. Scattered clouds.20 mph84%29.86 "Hg5 mi
11:00 AM82 °FScattered clouds.17 mph89%29.86 "HgN/A
10:30 AM82 °FScattered clouds.17 mph89%29.86 "HgN/A
10:00 AM82 °FSprinkles. Scattered clouds.20 mph89%29.86 "Hg4 mi
9:30 AM84 °FScattered clouds.18 mph89%29.83 "HgN/A
9:00 AM84 °FScattered clouds.21 mph84%29.83 "HgN/A
8:30 AM82 °FScattered showers. Scattered clouds.21 mph94%29.83 "HgN/A
8:00 AM82 °FSprinkles. Scattered clouds.22 mph89%29.80 "Hg4 mi
7:30 AM82 °FSprinkles. Scattered clouds.21 mph89%29.80 "Hg6 mi
7:00 AM82 °FSprinkles. Scattered clouds.20 mph89%29.80 "Hg5 mi
6:00 AM82 °FSprinkles. Passing clouds.21 mph89%29.77 "HgN/A
5:30 AM82 °FPassing clouds.21 mph89%29.77 "HgN/A
5:00 AM82 °FPassing clouds.21 mph89%29.74 "HgN/A
4:30 AM81 °FSprinkles. Passing clouds.18 mph100%29.74 "HgN/A
4:00 AM77 °FSprinkles. Passing clouds.14 mph100%29.74 "HgN/A
3:46 AM77 °FThunderstorms. Partly cloudy.14 mph94%29.74 "Hg4 mi
3:30 AM82 °FStrong thunderstorms. Partly cloudy.23 mph89%29.74 "Hg1 mi
3:00 AM82 °FSprinkles. Passing clouds.21 mph89%29.74 "Hg6 mi
Weather by CustomWeather, © 2014

See weather overviewHow to use our weather pages